CZ-6A DEB

Satellite information

Favourite Embed

Satellite Type and Status

DEBRISIN ORBIT

Key statistics

Satellite CZ-6A DEB at a glance.

Uptime

495

Days in orbit

Revolutions

≈ 14.6

Per day

Orbit

LEO

Low Earth Orbit

Inclination

88.8

Latest

Satellite identification and parameters

Extended collection of information and parameters for CZ-6A DEB.

Object identification

Identified? True

Debris? True

Object name: CZ-6A DEB

International designator: 2024-140UL

Object number (NORAD): 61323

Object ID (CCSDS): 61323

Country: PEOPLES REPUBLIC OF CHINA (PRC)

Current information (Y/N): Y

RCS size: SMALL

Orbital parameters

Period: 98.722 minutes

Inclination: 88.8438 deg

SMA: 7075.711 km

Apoapsis: 753.036 km

Periapsis: 642.115 km

RAAN: 282.9935 deg

Eccentricy: 0.00783812

Argument of periapsis: 175.2861 deg

Mean anomaly: 184.9108 deg

Mean motion: 14.58638514 rev/day

Mean motion (dot): 0.00010396 rev/day2

B* drag term: 0.0021343797 1/REarth

Two-line elements (TLE)

Creation date: Dec. 14, 2025, 3:07 a.m.

Reference frame: TEME

Reference center: EARTH

Epoch: Dec. 13, 2025, 8:08 a.m. UTC

TLE line 0: 0 CZ-6A DEB

TLE line 1: 1 61323U 24140UL 25347.33938907 .00010396 00000-0 21344-2 0 9994

TLE line 2: 2 61323 88.8438 282.9935 0078381 175.2861 184.9108 14.58638514 67752

Live tracking on map

Real-time ground track for satellite CZ-6A DEB.

In-orbit conjunctions

A list of the most updated potential collisions computed for object CZ-6A DEB.

Target Orbit TCA Probability of collision Miss distance Type
CZ-4 DEB SSO 2025-04-05 05:17:43 0.0001268031 57.0 (m) DEBRIS
FENGYUN 1C DEB SSO 2025-01-23 08:51:17 0.0001233271 654.0 (m) DEBRIS
CZ-4 DEB SSO 2025-01-15 17:21:07 0.0001180671 775.0 (m) DEBRIS
CZ-6A DEB LEO 2024-11-14 20:38:50 0.002301527 107.0 (m) DEBRIS
CZ-6A DEB SSO 2024-11-05 11:29:19 0.0001196685 400.0 (m) DEBRIS

Associated space launch

18 Low Earth Orbit communication satellites with Ku, Q and V band payloads for the G60 constellation operated by Shanghai Spacecom Satellite Technology (SSST) with funding backed by the Shanghai local government. Initial constellation will consist of 1296 satellites by 2027 with long term plans to expand it to 12000 satellites.

CZ-6A DEB was lifted into orbit during the mission ‘Long March 6A | G60 Polar Group 01’, on board a Long March 6A space rocket.

The launch took place on Aug. 6, 2024, 6:42 a.m. from Launch Complex 9A.

For more information about the launch, click the button.

Launch to space Long March 6A | G60 Polar Group 01
Long March 6A | G60 Polar Group 01

Agency: N/A

Status: Launch Successful

Launch date: Aug. 6, 2024, 6:42 a.m. UTC

Rocket: Long March 6A

Launch pad: Launch Complex 9A

Location: Taiyuan Satellite Launch Center, People's Republic of China

...

Latest news about this satellite

News about space launch
Brightness of first Chinese broadband constellation satellites alarms astronomers

The first satellites of a Chinese broadband constellation are significantly brighter than those of Western systems, posing a new challenge for astronomers.

News about space launch
Chinese rocket stage breaks up into cloud of more than 700 pieces of space debris

HELSINKI — A Chinese Long March 6A rocket’s upper stage has fragmented into a cloud of over 700 pieces of space debris, adding to concerns about long-term orbital safety. China […]

News about space launch
China's Thousand Sails Megaconstellation Kicks Off with Dangerous Debris Field

China's Thousand Sails Megaconstellation Kicks Off with Dangerous Debris Field


Newsletter sign-up

Weekly statistics, charts and insights to help you stay on top of the space industry.